Orbital Elements at Epoch 2459200.5 (2020-Dec-17.0) TDB
Reference: JPL 20 (heliocentric ecliptic J2000)
Element | Value | Uncertainty (1-sigma) | Units |
e | .1825872427934813 | 3.5065e-08 | |
a | 2.76806492717079 | 1.2359e-08 | au |
q | 2.262651584245337 | 9.7783e-08 | au |
i | 10.46377258501296 | 4.0391e-06 | deg |
node | 93.1622394049657 | 2.4094e-05 | deg |
peri | 16.05478630331841 | 2.7816e-05 | deg |
M | .7859733215804667 | 1.1988e-05 | deg |
tp | 2459196.827446424708 (2020-Dec-13.32744642) | 5.6018e-05 | TDB |
period | 1682.142702307596 4.61 | 1.1266e-05 3.084e-08 | d yr |
n | .2140127585526157 | 1.4333e-09 | deg/d |
Q | 3.273478270096243 | 1.4615e-08 | au |
|
| | Orbit Determination Parameters
Additional Information
|